Fort Drum, NY

6:14 PM EDT on March 24, 2017 (GMT -0400)
Wheeler-Sack Army Air Field

Weather History for KGTB - January, 2014

Change the Weather History Date:

Wednesday, January 29, 2014

  Actual Average Record
Temperature  
Mean Temperature 8 °F -  
Max Temperature 14 °F 24 °F 41 °F (2006)
Min Temperature 2 °F 7 °F -13 °F (2000)
Degree Days  
Heating Degree Days 57    
Moisture  
Dew Point 4 °F    
Average Humidity 82    
Maximum Humidity 93    
Minimum Humidity 67    
Precipitation  
Precipitation 0.00 in - - ()
Sea Level Pressure  
Sea Level Pressure 30.00 in    
Wind  
Wind Speed 13 mph (SW)    
Max Wind Speed 21 mph    
Max Gust Speed 29 mph    
Visibility 3 miles    
Events Fog , Snow    
Averages and records for this station are not official NWS values.
T = Trace of Precipitation, MM = Missing Value Source: NWS Daily Summary

Daily Weather History Graph

Daily Weather History Graph

Search for Another Location

Airport or City:

Trip Planner

Search our weather history database for the weather conditions in past years. The results will help you decide how hot, cold, wet, or windy it might be!

Date:

Astronomy

Jan. 29, 2014 Rise Set
Actual Time 7:23 AM EST 5:08 PM EST
Civil Twilight 6:52 AM EST 5:39 PM EST
Nautical Twilight 6:17 AM EST 6:14 PM EST
Astronomical Twilight 5:43 AM EST 6:48 PM EST
Moon 5:58 AM EST (1/29) 4:05 PM EST (1/29)
Length of Visible Light 10h 47m
Length of Day
9h 45m
Waning Crescent, 2% of the Moon is Illuminated
Jan 29
Waning Crescent
Jan 30
New
Feb 6
First Quarter
Feb 14
Full
Feb 22
Last Quarter

Hourly Weather History & Observations

Time (EST) Temp. Windchill Dew Point Humidity Pressure Visibility Wind Dir Wind Speed Gust Speed Precip Events Conditions
12:58 AM 6.8 °F -7.8 °F -1.5 °F 69% 30.14 in 4.0 mi SW 10.4 mph - 0.00 in Snow Light Snow
1:08 AM 6.8 °F -7.8 °F -0.4 °F 72% 30.08 in 2.5 mi SSW 10.4 mph - N/A Snow Light Snow
1:58 AM 5.7 °F -10.7 °F 1.0 °F 81% 30.12 in 2.5 mi SSW 12.7 mph - 0.00 in Snow Light Snow
2:58 AM 5.7 °F -10.7 °F 1.2 °F 82% 30.11 in 2.0 mi SSW 12.7 mph 19.6 mph 0.00 in Snow Light Snow
3:43 AM 5.0 °F -10.8 °F -0.4 °F 78% 30.04 in 3.0 mi SSW 11.5 mph - N/A Snow Light Snow
3:48 AM 5.0 °F -11.6 °F -0.4 °F 78% 30.03 in 2.5 mi SSW 12.7 mph - N/A Snow Light Snow
3:58 AM 5.0 °F -10.8 °F -0.2 °F 79% 30.08 in 2.5 mi SSW 11.5 mph - 0.00 in Snow Light Snow
4:08 AM 5.0 °F -9.1 °F -0.4 °F 78% 30.03 in 3.0 mi SSW 9.2 mph - N/A Snow Light Snow
4:28 AM 5.0 °F -11.6 °F -0.4 °F 78% 30.02 in 2.5 mi SSW 12.7 mph - N/A Snow Light Snow
4:58 AM 4.1 °F -11.1 °F -0.4 °F 82% 30.06 in 2.5 mi SSW 10.4 mph - 0.00 in Snow Light Snow
5:03 AM 3.2 °F -14.6 °F -0.4 °F 85% 30.01 in 3.0 mi SSW 13.8 mph - N/A Snow Light Snow
5:18 AM 3.2 °F -13.1 °F -0.4 °F 85% 30.01 in 2.5 mi SSW 11.5 mph - N/A Snow Light Snow
5:23 AM 3.2 °F -13.9 °F -0.4 °F 85% 30.01 in 2.5 mi SSW 12.7 mph - N/A Snow Light Snow
5:28 AM 3.2 °F -14.6 °F -0.4 °F 85% 30.01 in 3.0 mi SSW 13.8 mph - N/A Snow Light Snow
5:58 AM 3.7 °F -14.6 °F -0.9 °F 81% 30.05 in 3.0 mi SSW 15.0 mph - 0.00 in Snow Light Snow
6:58 AM 3.0 °F -15.5 °F -1.8 °F 80% 30.04 in 4.0 mi SSW 15.0 mph - 0.00 in Snow Light Snow
7:43 AM 3.2 °F -15.3 °F -2.2 °F 78% 29.97 in 2.5 mi SSW 15.0 mph - N/A Snow Light Snow
7:58 AM 2.8 °F -16.4 °F -2.0 °F 80% 30.04 in 2.5 mi SSW 16.1 mph - 0.00 in Snow Light Snow
8:13 AM 3.2 °F -13.9 °F -2.2 °F 78% 29.98 in 3.0 mi SSW 12.7 mph - N/A Snow Light Snow
8:58 AM 4.3 °F -11.7 °F -1.7 °F 76% 30.04 in 3.0 mi SSW 11.5 mph 24.2 mph 0.00 in Snow Light Snow
9:13 AM 5.0 °F -12.3 °F -2.2 °F 72% 29.98 in 3.0 mi SSW 13.8 mph 24.2 mph N/A Snow Light Snow
9:23 AM 5.0 °F -13.0 °F -2.2 °F 72% 29.98 in 2.5 mi SSW 15.0 mph 23.0 mph N/A Snow Light Snow
9:28 AM 5.0 °F -13.6 °F -2.2 °F 72% 29.99 in 3.0 mi SSW 16.1 mph 23.0 mph N/A Snow Light Snow
9:33 AM 5.0 °F -13.6 °F -2.2 °F 72% 29.98 in 4.0 mi SSW 16.1 mph 26.5 mph N/A Snow Light Snow
9:58 AM 4.8 °F -15.5 °F -3.5 °F 69% 30.03 in 4.0 mi SSW 19.6 mph 24.2 mph 0.00 in Snow Light Snow
10:22 AM 5.0 °F -14.2 °F -2.2 °F 72% 29.97 in 4.0 mi SSW 17.3 mph 26.5 mph N/A   Haze
10:30 AM 5.0 °F -12.3 °F -2.2 °F 72% 29.98 in 8.0 mi SSW 13.8 mph - N/A Snow Light Snow
10:55 AM 6.8 °F -11.8 °F -2.2 °F 67% 29.96 in 3.0 mi SSW 17.3 mph 26.5 mph N/A Snow Light Snow
10:58 AM 6.4 °F -11.1 °F -1.5 °F 70% 30.01 in 3.0 mi SSW 15.0 mph 26.5 mph 0.00 in Snow Light Snow
11:16 AM 6.8 °F -11.8 °F -0.4 °F 72% 29.96 in 3.0 mi SSW 17.3 mph 26.5 mph N/A   Haze
11:26 AM 6.8 °F -12.9 °F -0.4 °F 72% 29.96 in 4.0 mi SSW 19.6 mph 27.6 mph N/A   Haze
11:31 AM 6.8 °F -10.7 °F -0.4 °F 72% 29.95 in 3.0 mi SSW 15.0 mph 28.8 mph N/A   Haze
11:36 AM 6.8 °F -11.8 °F -0.4 °F 72% 29.95 in 3.0 mi SSW 17.3 mph 28.8 mph N/A   Haze
11:41 AM 6.8 °F -13.4 °F -0.4 °F 72% 29.95 in 5.0 mi SSW 20.7 mph 25.3 mph N/A   Haze
11:50 AM 6.8 °F -12.9 °F -0.4 °F 72% 29.95 in 6.0 mi SSW 19.6 mph 25.3 mph N/A Snow Light Snow
11:58 AM 7.3 °F -8.6 °F 0.1 °F 72% 30.00 in 3.0 mi SW 12.7 mph 26.5 mph 0.00 in Snow Light Snow
12:03 PM 6.8 °F -11.8 °F 1.4 °F 79% 29.95 in 2.5 mi SW 17.3 mph 24.2 mph N/A Snow Light Snow
12:08 PM 6.8 °F -10.0 °F 1.4 °F 79% 29.94 in 1.8 mi SW 13.8 mph 24.2 mph N/A Snow Light Snow
12:18 PM 8.6 °F -10.5 °F 1.4 °F 73% 29.94 in 1.0 mi SSW 19.6 mph 25.3 mph N/A Snow Light Snow
12:23 PM 8.6 °F -9.5 °F 1.4 °F 73% 29.93 in 0.8 mi SSW 17.3 mph 26.5 mph N/A Snow Light Snow
12:33 PM 8.6 °F -8.3 °F 3.2 °F 79% 29.93 in 0.8 mi SSW 15.0 mph 28.8 mph N/A Snow Light Snow
12:38 PM 8.6 °F -8.3 °F 3.2 °F 79% 29.93 in 0.8 mi SSW 15.0 mph 28.8 mph N/A Snow Light Snow
12:43 PM 8.6 °F -8.9 °F 3.2 °F 79% 29.93 in 1.0 mi SSW 16.1 mph 24.2 mph N/A Snow Light Snow
12:48 PM 8.6 °F -10.0 °F 3.2 °F 79% 29.93 in 0.8 mi SSW 18.4 mph 27.6 mph N/A Snow Light Snow
12:58 PM 8.1 °F -10.2 °F 3.4 °F 81% 29.97 in 0.5 mi SSW 17.3 mph 26.5 mph 0.00 in Snow Snow
1:03 PM 8.6 °F -8.9 °F 3.2 °F 79% 29.92 in 0.5 mi SSW 16.1 mph 26.5 mph N/A Snow Snow
1:58 PM 9.1 °F -7.7 °F 4.8 °F 83% 29.97 in 0.8 mi SW 15.0 mph 23.0 mph 0.00 in Snow Light Snow
2:08 PM 8.6 °F -9.5 °F 5.0 °F 85% 29.92 in 0.8 mi SW 17.3 mph 25.3 mph N/A Snow Light Snow
2:13 PM 8.6 °F -7.0 °F 5.0 °F 85% 29.92 in 1.0 mi SW 12.7 mph 25.3 mph N/A Snow Light Snow
2:18 PM 8.6 °F -9.5 °F 5.0 °F 85% 29.93 in 0.8 mi SW 17.3 mph 23.0 mph N/A Snow Light Snow
2:28 PM 8.6 °F -7.0 °F 5.0 °F 85% 29.92 in 1.0 mi SW 12.7 mph 23.0 mph N/A Snow Light Snow
2:38 PM 10.4 °F -3.3 °F 5.0 °F 79% 29.93 in 1.0 mi SW 10.4 mph - N/A Snow Light Snow
2:43 PM 10.4 °F -4.1 °F 6.8 °F 85% 29.93 in 1.2 mi SSW 11.5 mph - N/A Snow Light Snow
2:58 PM 10.4 °F -2.4 °F 6.4 °F 84% 29.98 in 1.5 mi SW 9.2 mph - 0.00 in Snow Light Snow
3:03 PM 10.4 °F -0.4 °F 6.8 °F 85% 29.94 in 1.2 mi SW 6.9 mph - N/A Snow Light Snow
3:08 PM 10.4 °F -0.4 °F 6.8 °F 85% 29.94 in 1.0 mi WSW 6.9 mph - N/A Snow Light Snow
3:13 PM 12.2 °F -1.8 °F 8.6 °F 85% 29.94 in 0.8 mi WSW 11.5 mph - N/A Snow Light Snow
3:18 PM 12.2 °F -1.0 °F 8.6 °F 85% 29.94 in 0.5 mi WSW 10.4 mph - N/A Fog , Snow Light Freezing Fog
3:33 PM 12.2 °F -2.5 °F 10.4 °F 92% 29.95 in 1.0 mi WSW 12.7 mph 20.7 mph N/A Snow Light Snow
3:38 PM 12.2 °F -3.1 °F 10.4 °F 92% 29.95 in 1.2 mi WSW 13.8 mph 23.0 mph N/A Snow Light Snow
3:43 PM 12.2 °F -2.5 °F 10.4 °F 92% 29.95 in 1.0 mi West 12.7 mph 23.0 mph N/A Snow Light Snow
3:48 PM 12.2 °F -2.5 °F 10.4 °F 92% 29.95 in 1.2 mi WSW 12.7 mph 23.0 mph N/A Snow Light Snow
3:58 PM 13.3 °F 0.3 °F 9.7 °F 86% 30.00 in 2.0 mi WSW 10.4 mph 24.2 mph 0.00 in Snow Light Snow
4:08 PM 14.0 °F -0.8 °F 10.4 °F 86% 29.95 in 1.2 mi WSW 13.8 mph 21.9 mph N/A Snow Light Snow
4:18 PM 14.0 °F -1.4 °F 10.4 °F 86% 29.95 in 1.0 mi WSW 15.0 mph 23.0 mph N/A Snow Light Snow
4:23 PM 14.0 °F -1.4 °F 10.4 °F 86% 29.96 in 1.0 mi WSW 15.0 mph 23.0 mph N/A Snow Light Snow
4:28 PM 14.0 °F 2.0 °F 10.4 °F 86% 29.96 in 1.0 mi West 9.2 mph 23.0 mph N/A Snow Light Snow
4:33 PM 14.0 °F -0.8 °F 10.4 °F 86% 29.96 in 0.8 mi West 13.8 mph 20.7 mph N/A Snow Light Snow
4:53 PM 14.0 °F 0.5 °F 10.4 °F 86% 29.97 in 1.0 mi WSW 11.5 mph 23.0 mph N/A Snow Light Snow
4:58 PM 14.0 °F 0.5 °F 10.4 °F 86% 30.02 in 1.5 mi West 11.5 mph 23.0 mph 0.00 in Snow Light Snow
5:03 PM 14.0 °F 1.2 °F 8.6 °F 79% 29.98 in 2.5 mi WSW 10.4 mph 21.9 mph N/A Snow Light Snow
5:13 PM 14.0 °F 1.2 °F 8.6 °F 79% 29.98 in 1.8 mi West 10.4 mph 21.9 mph N/A Snow Light Snow
5:28 PM 14.0 °F -0.8 °F 8.6 °F 79% 29.99 in 1.0 mi WSW 13.8 mph 19.6 mph N/A Snow Light Snow
5:33 PM 14.0 °F -0.8 °F 10.4 °F 86% 29.99 in 1.0 mi WSW 13.8 mph 19.6 mph N/A Snow Light Snow
5:38 PM 14.0 °F 0.5 °F 10.4 °F 86% 29.99 in 0.5 mi WSW 11.5 mph 19.6 mph N/A Fog , Snow Light Freezing Fog
5:43 PM 14.0 °F -1.4 °F 10.4 °F 86% 29.99 in 0.2 mi West 15.0 mph 21.9 mph N/A Fog , Snow Heavy Freezing Fog
5:48 PM 14.0 °F -0.2 °F 10.4 °F 86% 29.99 in 0.2 mi West 12.7 mph 21.9 mph N/A Fog , Snow Heavy Freezing Fog
5:58 PM 13.6 °F 0.7 °F 11.5 °F 91% 30.05 in 0.2 mi West 10.4 mph 19.6 mph 0.00 in Fog , Snow Heavy Freezing Fog
6:03 PM 14.0 °F 2.0 °F 12.2 °F 93% 30.00 in 0.5 mi West 9.2 mph - N/A Fog , Snow Light Freezing Fog
6:13 PM 14.0 °F 1.2 °F 12.2 °F 93% 30.01 in 1.5 mi West 10.4 mph 19.6 mph N/A Snow Light Snow
6:18 PM 14.0 °F -1.4 °F 10.4 °F 86% 30.01 in 3.0 mi West 15.0 mph 19.6 mph N/A Snow Light Snow
6:23 PM 14.0 °F 3.9 °F 10.4 °F 86% 30.01 in 3.0 mi West 6.9 mph - N/A Snow Light Snow
6:28 PM 14.0 °F 2.0 °F 10.4 °F 86% 30.02 in 2.5 mi West 9.2 mph - N/A Snow Light Snow
6:38 PM 14.0 °F 2.0 °F 10.4 °F 86% 30.02 in 3.0 mi West 9.2 mph - N/A Snow Light Snow
6:43 PM 12.2 °F 0.7 °F 10.4 °F 92% 30.02 in 7.0 mi West 8.1 mph - N/A Snow Light Snow
6:48 PM 12.2 °F -0.2 °F 10.4 °F 92% 30.03 in 8.0 mi WSW 9.2 mph - N/A Snow Light Snow
6:53 PM 12.2 °F 0.7 °F 10.4 °F 92% 30.03 in 9.0 mi West 8.1 mph - N/A Snow Light Snow
6:58 PM 12.9 °F -0.2 °F 10.2 °F 89% 30.08 in 10.0 mi West 10.4 mph - N/A Snow Light Snow
7:00 PM 12.2 °F 0.7 °F 10.4 °F 92% 30.03 in 10.0 mi West 8.1 mph - N/A   Overcast
7:58 PM 11.5 °F -0.2 °F 7.2 °F 83% 30.10 in 10.0 mi WSW 8.1 mph - 0.00 in   Clear
8:58 PM 8.6 °F -2.6 °F 5.2 °F 86% 30.13 in 10.0 mi WSW 6.9 mph - N/A   Clear
9:58 PM 8.6 °F -2.6 °F 5.2 °F 86% 30.15 in 10.0 mi WSW 6.9 mph - N/A   Clear
10:58 PM 9.5 °F -0.3 °F 5.5 °F 84% 30.17 in 10.0 mi WSW 5.8 mph - N/A   Scattered Clouds
11:33 PM 10.4 °F 0.8 °F 6.8 °F 85% 30.13 in 10.0 mi West 5.8 mph - N/A   Mostly Cloudy
11:43 PM 10.4 °F -0.4 °F 6.8 °F 85% 30.13 in 10.0 mi West 6.9 mph - N/A   Mostly Cloudy
11:58 PM 11.7 °F 2.3 °F 7.2 °F 82% 30.19 in 10.0 mi WSW 5.8 mph - N/A   Overcast